INTELSAT 19 (IS-19)

Last updated on Wed Oct 22 2025 00:02:47 GMT+0000 (Coordinated Universal Time)

1 38356U 12030A 25294.58355350 -.00000048 00000+0 00000+0 0 9998 2 38356 0.0180 270.0007 0003029 299.4160 196.9712 1.00274850 48056
UTC large
Height (km)
Speed (km/s)
/
Latitude / Longitude
Inclination (degrees)
Orbital Period (minutes)
Azimuth
Elevation
Range (km)
Doppler Factor

Next 0 passes for location: London (51.5072 / 0.1276)

Sorry there are no passes over London.